• In Romania
  • List of Countries
  • For 7 days
  • Water Temperature
  • Satellite Maps
  • Weather Map
  • Weather Widgets
  • user-avatar
    Login

    Hourly Weather Sunny Beach

    Today, 20 October, Friday

    Time Temperature Precipitation Wind Pressure Humidity
    00:00 +16°C° 0 mm 1 mps 737 mmHg 62%
    01:00 +16°C° 0 mm 1 mps 737 mmHg 63%
    02:00 +15°C° 0 mm 1 mps 737 mmHg 65%
    03:00 +15°C° 0 mm 1 mps 737 mmHg 65%
    04:00 +15°C° 0 mm 1 mps 737 mmHg 66%
    05:00 +15°C° 0 mm 1 mps 737 mmHg 66%
    06:00 +15°C° 0 mm 1 mps 737 mmHg 64%
    07:00 +16°C° 0 mm 1 mps 737 mmHg 61%
    08:00 +18°C° 0 mm 1 mps 738 mmHg 56%
    09:00 +20°C° 0 mm 1 mps 738 mmHg 50%
    10:00 +22°C° 0 mm 1 mps 738 mmHg 43%
    11:00 +24°C° 0 mm 1 mps 738 mmHg 37%
    12:00 +25°C° 0 mm 1 mps 738 mmHg 34%
    13:00 +25°C° 0 mm 1 mps 738 mmHg 32%
    14:00 +26°C° 0 mm 1 mps 738 mmHg 30%
    15:00 +25°C° 0 mm 1 mps 738 mmHg 33%
    16:00 +24°C° 0 mm 1 mps 737 mmHg 36%
    17:00 +22°C° 0 mm 1 mps 737 mmHg 40%
    18:00 +21°C° 0 mm 1 mps 737 mmHg 42%
    19:00 +20°C° 0 mm 1 mps 737 mmHg 44%
    20:00 +19°C° 0 mm 1 mps 738 mmHg 46%
    21:00 +19°C° 0 mm 1 mps 738 mmHg 46%
    22:00 +18°C° 0 mm 1 mps 738 mmHg 47%
    23:00 +18°C° 0 mm 1 mps 738 mmHg 48%

    Tomorrow, 21 October, Saturday

    Time Temperature Precipitation Wind Pressure Humidity
    00:00 +16°C° 0 mm 1 mps 738 mmHg 48%
    01:00 +16°C° 0 mm 1 mps 738 mmHg 49%
    02:00 +16°C° 0 mm 1 mps 737 mmHg 49%
    03:00 +15°C° 0 mm 1 mps 737 mmHg 50%
    04:00 +15°C° 0 mm 1 mps 737 mmHg 50%
    05:00 +15°C° 0 mm 1 mps 737 mmHg 51%
    06:00 +16°C° 0 mm 1 mps 737 mmHg 50%
    07:00 +16°C° 0 mm 1 mps 737 mmHg 48%
    08:00 +18°C° 0 mm 1 mps 737 mmHg 47%
    09:00 +20°C° 0 mm 1 mps 738 mmHg 42%
    10:00 +22°C° 0 mm 1 mps 738 mmHg 36%
    11:00 +25°C° 0 mm 1 mps 738 mmHg 30%
    12:00 +25°C° 0 mm 1 mps 737 mmHg 29%
    13:00 +26°C° 0 mm 1 mps 737 mmHg 27%
    14:00 +26°C° 0 mm 1 mps 737 mmHg 25%
    15:00 +25°C° 0 mm 1 mps 736 mmHg 29%
    16:00 +24°C° 0 mm 1 mps 736 mmHg 32%
    17:00 +22°C° 0 mm 1 mps 736 mmHg 35%
    18:00 +21°C° 0 mm 1 mps 736 mmHg 37%
    19:00 +20°C° 0 mm 1 mps 736 mmHg 38%
    20:00 +19°C° 0 mm 1 mps 736 mmHg 39%
    21:00 +19°C° 0 mm 1 mps 736 mmHg 40%
    22:00 +18°C° 0 mm 1 mps 736 mmHg 40%
    23:00 +18°C° 0 mm 1 mps 736 mmHg 41%

    Day after tomorrow, 22 October, Sunday

    Time Temperature Precipitation Wind Pressure Humidity
    00:00 +18°C° 0 mm 1 mps 736 mmHg 42%
    01:00 +16°C° 0 mm 2 mps 735 mmHg 43%
    02:00 +16°C° 0 mm 2 mps 735 mmHg 44%
    03:00 +16°C° 0 mm 2 mps 735 mmHg 46%
    04:00 +15°C° 0 mm 2 mps 735 mmHg 49%
    05:00 +15°C° 0 mm 2 mps 735 mmHg 51%
    06:00 +15°C° 0 mm 2 mps 735 mmHg 51%
    07:00 +16°C° 0 mm 2 mps 735 mmHg 51%
    08:00 +17°C° 0 mm 2 mps 735 mmHg 50%
    09:00 +18°C° 0 mm 2 mps 736 mmHg 46%
    10:00 +20°C° 0 mm 3 mps 736 mmHg 42%
    11:00 +22°C° 0 mm 3 mps 736 mmHg 38%
    12:00 +22°C° 0 mm 3 mps 736 mmHg 37%
    13:00 +22°C° 0 mm 3 mps 736 mmHg 36%
    14:00 +24°C° 0 mm 3 mps 735 mmHg 36%
    15:00 +21°C° 0 mm 3 mps 735 mmHg 42%
    16:00 +20°C° 0 mm 3 mps 735 mmHg 49%
    17:00 +18°C° 0 mm 4 mps 735 mmHg 56%
    18:00 +17°C° 0 mm 3 mps 735 mmHg 63%
    19:00 +16°C° 0 mm 3 mps 736 mmHg 70%
    20:00 +14°C° 0 mm 3 mps 736 mmHg 77%
    21:00 +13°C° 0 mm 3 mps 736 mmHg 80%
    22:00 +13°C° 0 mm 3 mps 736 mmHg 83%
    23:00 +13°C° 0 mm 3 mps 736 mmHg 85%

    23 October, Monday

    Time Temperature Precipitation Wind Pressure Humidity
    00:00 +13°C° 0 mm 3 mps 735 mmHg 87%
    01:00 +12°C° 0 mm 3 mps 735 mmHg 89%
    02:00 +12°C° 0 mm 3 mps 735 mmHg 91%
    03:00 +12°C° 0 mm 3 mps 735 mmHg 92%
    04:00 +12°C° 0 mm 3 mps 734 mmHg 93%
    05:00 +12°C° 0 mm 3 mps 734 mmHg 94%
    06:00 +12°C° 0 mm 3 mps 733 mmHg 92%
    07:00 +13°C° 0 mm 4 mps 733 mmHg 89%
    08:00 +13°C° 0 mm 4 mps 733 mmHg 87%
    09:00 +15°C° 0 mm 4 mps 733 mmHg 80%
    10:00 +17°C° 0 mm 4 mps 733 mmHg 73%
    11:00 +18°C° 0 mm 4 mps 732 mmHg 66%
    12:00 +19°C° 0 mm 4 mps 732 mmHg 64%
    13:00 +19°C° 0 mm 4 mps 731 mmHg 62%
    14:00 +20°C° 0 mm 4 mps 731 mmHg 59%
    15:00 +19°C° 0 mm 4 mps 731 mmHg 64%
    16:00 +18°C° 0 mm 4 mps 730 mmHg 69%
    17:00 +17°C° 0 mm 4 mps 730 mmHg 74%
    18:00 +17°C° 0 mm 4 mps 730 mmHg 79%
    19:00 +15°C° 0 mm 4 mps 730 mmHg 84%
    20:00 +14°C° 0 mm 4 mps 729 mmHg 89%
    21:00 +14°C° 0 mm 4 mps 729 mmHg 90%
    22:00 +14°C° 0 mm 4 mps 729 mmHg 91%
    23:00 +14°C° 0 mm 3 mps 729 mmHg 91%

    24 October, Tuesday

    Time Temperature Precipitation Wind Pressure Humidity
    00:00 +13°C° 0 mm 3 mps 728 mmHg 91%
    01:00 +13°C° 0 mm 3 mps 728 mmHg 91%
    02:00 +13°C° 0 mm 3 mps 728 mmHg 91%
    03:00 +13°C° 0 mm 3 mps 728 mmHg 90%
    04:00 +13°C° 0 mm 3 mps 728 mmHg 89%
    05:00 +13°C° 0 mm 4 mps 727 mmHg 88%
    06:00 +14°C° 0.3 mm 4 mps 728 mmHg 85%
    07:00 +14°C° 0.3 mm 4 mps 728 mmHg 83%
    08:00 +14°C° 0.3 mm 4 mps 728 mmHg 81%
    09:00 +15°C° 0.9 mm 4 mps 728 mmHg 78%
    10:00 +15°C° 0.9 mm 4 mps 729 mmHg 76%
    11:00 +17°C° 0.9 mm 3 mps 729 mmHg 73%
    12:00 +18°C° 0.2 mm 4 mps 729 mmHg 67%
    13:00 +19°C° 0.2 mm 5 mps 729 mmHg 61%
    14:00 +20°C° 0.2 mm 6 mps 729 mmHg 55%
    15:00 +19°C° 0.1 mm 6 mps 729 mmHg 63%
    16:00 +17°C° 0.1 mm 6 mps 729 mmHg 70%
    17:00 +16°C° 0.1 mm 6 mps 729 mmHg 78%
    18:00 +16°C° 0.6 mm 7 mps 730 mmHg 80%
    19:00 +16°C° 0.6 mm 7 mps 730 mmHg 83%
    20:00 +15°C° 0.6 mm 7 mps 731 mmHg 85%
    21:00 +15°C° 0.3 mm 8 mps 731 mmHg 86%
    22:00 +15°C° 0.3 mm 8 mps 731 mmHg 86%
    23:00 +15°C° 0.3 mm 8 mps 732 mmHg 87%

    25 October, Wednesday

    Time Temperature Precipitation Wind Pressure Humidity
    00:00 +15°C° 0.2 mm 8 mps 732 mmHg 86%
    01:00 +15°C° 0.2 mm 9 mps 732 mmHg 86%
    02:00 +13°C° 0.2 mm 9 mps 732 mmHg 86%
    03:00 +13°C° 0.2 mm 9 mps 732 mmHg 85%
    04:00 +13°C° 0.2 mm 9 mps 733 mmHg 85%
    05:00 +12°C° 0.2 mm 9 mps 733 mmHg 85%
    06:00 +12°C° 0.3 mm 9 mps 733 mmHg 84%
    07:00 +11°C° 0.3 mm 10 mps 733 mmHg 84%
    08:00 +11°C° 0.3 mm 10 mps 734 mmHg 83%
    09:00 +9°C° 0.5 mm 10 mps 734 mmHg 83%
    10:00 +8°C° 0.5 mm 11 mps 734 mmHg 82%
    11:00 +7°C° 0.5 mm 11 mps 735 mmHg 81%
    12:00 +7°C° 0.5 mm 11 mps 735 mmHg 80%
    13:00 +6°C° 0.5 mm 11 mps 735 mmHg 78%
    14:00 +6°C° 0.5 mm 11 mps 735 mmHg 77%
    15:00 +6°C° 0.8 mm 11 mps 735 mmHg 76%
    16:00 +5°C° 0.8 mm 10 mps 735 mmHg 76%
    17:00 +5°C° 0.8 mm 10 mps 736 mmHg 76%
    18:00 +5°C° 0.6 mm 10 mps 736 mmHg 77%
    19:00 +3°C° 0.6 mm 10 mps 737 mmHg 78%
    20:00 +3°C° 0.6 mm 10 mps 737 mmHg 78%
    21:00 +3°C° 0.3 mm 10 mps 738 mmHg 79%
    22:00 +2°C° 0.3 mm 10 mps 738 mmHg 79%
    23:00 +2°C° 0.3 mm 9 mps 738 mmHg 79%
    Show more